STARLINK-2110 (47389 NORAD) Tracking and Keplerian Element Data

This shows tracking and keplerian element data for the satellite.

Feedback or suggestion? Click here.




ElementValue
Catalog47389
NameSTARLINK-2110
Epoch Orbit191
Epoch Day105.91667824
Epoch Year2021
RAAN153.2941
Inclination53.053
Eccentricity0.0001284
Argument of Perigee68.3847
Mean Anonmoly201.0505
Mean Motion15.383557
Decay Rate-0.01080923
L11 47389U 21005AS 21105.91667824 -.01080923 00000-0 -30694-1 0 9999
L22 47389 53.0530 153.2941 0001284 68.3847 201.0505 15.38355700 1916

Live tracking and technical data element details for STARLINK-2110 (NORAD 47389). STARLINK-2110 can be tracked NOW for your location showing map with azimuth and elevation plus other details from your city location.

Track the satellite on the map from your city or location and see movement details for azimuth, elevation, latitude, longitude, range, height, and movement on the map or in text.







IsCatalogInMostPopularTable: catalog: 47389, numindb: 14
Update: records affected: 1



GetName: 47389 STARLINK-2110

Hit Count: updated at: Fri, 16 Apr 2021 12:18:22 GMT